Tracking 18852 objects as of 23-Nov-2017
HD Live streaming from Space Station
objects crossing your sky now

FENGYUN 1C DEB

Track FENGYUN 1C DEB now!
10-day predictions


NORAD ID: 31546
Int'l Code: 1999-025BYM
Perigee: 782.7 km
Apogee: 1,041.5 km
Inclination: 98.2 °
Period: 103.1 minutes
Semi major axis: 7283 km
RCS: 0.0099 m2 (small)
Launch date: May 10, 1999
Source: People's Republic of China (PRC)
Launch site: Taiyaun Space Center, China (TSC)

Note: This is SATELLITE DEBRIS
aabbcc
Your satellite tracking list
Your tracking list is empty




NASA's NSSDC Master Catalog

Two Line Element Set (TLE):
1 31546U 99025BYM 17327.10769948  .00000535  00000-0  36016-3 0  9990
2 31546  98.2238 282.2636 0177681 188.0727 171.7570 13.96787691535924
Source of the keplerian elements: AFSPC